Home   Weather   Decatur   Past weeks

Flag for USA Past Weather in Decatur, Illinois, USA — Yesterday and Last 2 Weeks

Now
60 °F

Clear.


Feels Like: 60 °F
Forecast: 58 / 84 °F
Wind: 8 mph from South

Location: Decatur Airport

Current Time: Jun 28, 2017 at 3:47:36 am

Latest Report: Jun 28, 2017 at 2:54 am


Visibility: 10 mi

Pressure: 30.02 "Hg

Humidity: 72%

Dew Point: 51 °F

Location of DecaturLocation

Past Weather in Decatur — Graph

°F

Decatur Temperature Yesterday

Maximum temperature yesterday: 76 °F (at 4:54 pm)
Minimum temperature yesterday: 52 °F (at 5:54 am)
Average temperature yesterday: 65 °F

High & Low Weather Summary for the Past Weeks

 TemperatureHumidityPressure
High93 °F (Jun 13, 1:54 pm)97% (Jun 22, 7:54 pm)30.20 "Hg (Jun 22, 7:54 pm)
Low52 °F (Jun 27, 5:54 am)29% (Jun 27, 4:54 pm)29.61 "Hg (Jun 17, 8:54 pm)
Average74 °F68%29.90 "Hg
* Reported Jun 13 1:54 am — Jun 28 1:54 am, Decatur. Weather by CustomWeather, © 2017

Note: Actual official high and low records may vary slightly from our data, if they occured in-between our weather recording intervals... More about our weather records

Advertising

Decatur Weather History for the Previous 24 Hours

Scroll right to see more
 ConditionsComfort  
Time TempWeatherWind HumidityBarometerVisibility
1:54 am
Wed, Jun 28
60 °FClear.8 mph69%30.05 "Hg10 mi
12:54 am63 °FClear.8 mph60%30.05 "Hg10 mi
11:54 pm
Tue, Jun 27
62 °FClear.9 mph65%30.05 "Hg10 mi
10:54 pm64 °FClear.9 mph58%30.05 "Hg10 mi
9:54 pm64 °FClear.8 mph58%30.05 "Hg10 mi
8:54 pm66 °FClear.8 mph52%30.04 "Hg10 mi
7:54 pm71 °FSunny.7 mph45%30.04 "Hg10 mi
6:54 pm74 °FSunny.10 mph40%30.04 "Hg10 mi
5:54 pm75 °FSunny.3 mph34%30.05 "Hg10 mi
4:54 pm76 °FSunny.N/A29%30.06 "Hg10 mi
3:54 pm75 °FSunny.10 mph34%30.09 "Hg10 mi
2:54 pm74 °FSunny.7 mph37%30.11 "Hg10 mi
1:54 pm74 °FSunny.7 mph37%30.12 "Hg10 mi
12:54 pm73 °FSunny.N/A37%30.14 "Hg10 mi
11:54 am71 °FSunny.5 mph38%30.15 "Hg10 mi
10:54 am69 °FSunny.No wind41%30.16 "Hg10 mi
9:54 am68 °FSunny.6 mph44%30.17 "Hg10 mi
8:54 am66 °FSunny.No wind50%30.17 "Hg10 mi
7:54 am63 °FSunny.No wind68%30.16 "Hg10 mi
6:54 am56 °FSunny.No wind87%30.16 "Hg10 mi
5:54 am52 °FSunny.No wind89%30.15 "Hg10 mi
4:54 am53 °FClear.No wind86%30.14 "Hg10 mi
3:54 am54 °FClear.No wind83%30.13 "Hg10 mi
Weather by CustomWeather, © 2017

See weather overviewHow to use our weather pages